Location: Edinburgh
(55.9500°N, 3.1600°W)
Time: 17:03:06
(UTC+00:00)

Envisat - Pass Details

Date: 16 October 2017
Orbit: 764 x 766 km, 98.2° (Epoch: 13 December)

Event Time Altitude Azimuth Distance (km) Brightness Sun altitude
Exits shadow 19:05:26 - 107° (ESE) 2,416 5.0 -8.6°
Reaches altitude 10° 19:05:46 10° 105° (ESE) 2,310 4.9 -8.6°
Maximum altitude 19:09:44 24° 54° (NE) 1,577 4.2 -9.2°
Drops below altitude 10° 19:13:42 10° 3° (N) 2,321 5.5 -9.8°
Sets 19:16:24 0° 349° (N) 3,251 6.4 -10.1°
